Regional Weather Roundup
Issued by NWS

Home | Current Version | Previous Version | Text Only | Print | Product List | Glossary Off
Versions: 1 2 3 4 5 6 7 8 9 10 11 12 13 14 15 16 17 18 19 20 21 22 23 24 25 26 27 28 29 30 31 32 33 34 35 36 37 38 39 40 41 42 43 44 45 46 47 48 49 50

000
ASUS43 KBIS 240502
RWRND

NORTH DAKOTA REGIONAL WEATHER ROUNDUP
NATIONAL WEATHER SERVICE BISMARCK ND
1100 PM CST MON JAN 23 2017

NOTE: "FAIR" INDICATES FEW OR NO CLOUDS BELOW 12,000 FEET WITH NO
SIGNIFICANT WEATHER AND/OR OBSTRUCTIONS TO VISIBILITY.


NDZ001>003-009>011-017-240600-
NORTHWEST NORTH DAKOTA

CITY           SKY/WX    TMP DP  RH WIND       PRES   REMARKS
WILLISTON      CLOUDY    22  19  89 W6        29.84R WCI  14
MINOT          CLOUDY    24  18  77 W13       29.80R WCI  12
$$

NDZ018>021-031>035-040>046-240600-
SOUTHWEST NORTH DAKOTA

CITY           SKY/WX    TMP DP  RH WIND       PRES   REMARKS
BISMARCK       CLOUDY    30  25  81 CALM      29.83S
DICKINSON      CLOUDY    22  21  96 W7        29.77S FOG     WCI  13
GARRISON         N/A     20  16  84 NW9       29.81R WCI   9
HETTINGER ARPT FOG       21  20  96 NE3       29.80S VSB 3/4
$$

NDZ004>008-012>016-024-026-027-054-240600-
NORTHEAST NORTH DAKOTA

CITY           SKY/WX    TMP DP  RH WIND       PRES   REMARKS
GRAND FORKS    CLOUDY    27  21  78 W9        29.83S WCI  18
GRND FRKS AFB  CLOUDY    26  20  79 NW14      29.83S WCI  14
DEVILS LAKE    CLOUDY    22  19  89 W13       29.80S WCI  10
$$

NDZ022-023-025-028>030-036>039-047>053-240600-
SOUTHEAST NORTH DAKOTA

CITY           SKY/WX    TMP DP  RH WIND       PRES   REMARKS
FARGO          CLOUDY    33  25  72 W6        29.84S
JAMESTOWN      CLOUDY    28  23  81 NW7       29.81S
$$




USA.gov is the U.S. government's official web portal to all federal, state and local government web resources and services.